Вернуться в каталог

STARLINK-37209

АктивенСвязьVLEO
NORAD 69187·PAYLOAD·🇺🇸 United States

Запущен May 25, 2026 с Cape Canaveral Space Force Station

Loading…

Ближайшие Пролёты (ближайшие 24 часа)

TLE

СвежийSource: CelesTrak SupGP

Эпоха: Sep 15, 2026, 03:21 UTC

1 69187C 26114F   26258.14006944  .00041799  00000+0  12335-2 0  2589
2 69187  53.1558 139.0156 0001411  75.7679 159.3388 15.34407375    10

Отслеживайте STARLINK-37209 в реальном времени с AllMySat

Download on the App Store